Time,TemperatureF,DewpointF,PressureIn,WindDirection,WindDirectionDegrees,WindSpeedMPH,WindSpeedGustMPH,Humidity,HourlyPrecipIn,Conditions,Clouds,dailyrainin,SoftwareType,DateUTC
2013-08-20 00:05:00,74.8,65.9,29.49,SE,139,0.0,0.0,74,0.00,,,0.00,Weather View 32 v70,2013-08-20 05:05:00,
2013-08-20 00:10:00,74.7,66.2,29.68,SE,139,0.0,0.0,75,0.00,,,0.00,Weather View 32 v70,2013-08-20 05:10:00,
2013-08-20 00:15:00,74.6,66.1,29.63,South,184,0.0,0.0,75,0.00,,,0.00,Weather View 32 v70,2013-08-20 05:15:00,
2013-08-20 00:25:00,74.5,66.0,29.66,East,94,0.0,0.0,75,0.00,,,0.00,Weather View 32 v70,2013-08-20 05:25:00,
2013-08-20 00:30:00,74.4,65.9,29.65,SE,139,0.0,0.0,75,0.00,,,0.00,Weather View 32 v70,2013-08-20 05:30:00,
2013-08-20 00:39:00,74.4,65.9,29.65,SE,139,0.0,0.0,75,0.00,,,0.00,Weather View 32 v70,2013-08-20 05:39:00,
2013-08-20 00:45:00,74.4,65.9,29.58,SSW,207,0.0,0.0,75,0.00,,,0.00,Weather View 32 v70,2013-08-20 05:45:00,
2013-08-20 00:50:00,74.3,65.8,29.65,SSW,207,0.0,0.0,75,0.00,,,0.00,Weather View 32 v70,2013-08-20 05:50:00,
2013-08-20 01:00:00,74.1,66.0,29.69,South,184,0.0,0.0,76,0.00,,,0.00,Weather View 32 v70,2013-08-20 06:00:00,
2013-08-20 01:05:00,74.1,66.0,29.66,SE,139,0.0,0.0,76,0.00,,,0.00,Weather View 32 v70,2013-08-20 06:05:00,
2013-08-20 01:10:00,74.0,65.9,29.61,South,184,0.0,0.0,76,0.00,,,0.00,Weather View 32 v70,2013-08-20 06:10:00,
2013-08-20 01:20:00,73.8,65.7,29.58,SSE,162,0.0,0.0,76,0.00,,,0.00,Weather View 32 v70,2013-08-20 06:20:00,
2013-08-20 01:30:00,73.7,65.6,29.66,SW,229,0.0,0.0,76,0.00,,,0.00,Weather View 32 v70,2013-08-20 06:30:00,
2013-08-20 01:35:00,73.6,65.5,29.61,ESE,117,0.0,0.0,76,0.00,,,0.00,Weather View 32 v70,2013-08-20 06:35:00,
2013-08-20 01:40:00,73.5,65.8,29.65,South,184,0.0,0.0,77,0.00,,,0.00,Weather View 32 v70,2013-08-20 06:40:00,
2013-08-20 01:50:00,73.4,65.7,29.72,SE,139,0.0,0.0,77,0.00,,,0.00,Weather View 32 v70,2013-08-20 06:50:00,
2013-08-20 01:55:00,73.4,65.7,29.60,ESE,117,0.0,0.0,77,0.00,,,0.00,Weather View 32 v70,2013-08-20 06:55:00,
2013-08-20 02:05:00,73.2,65.9,29.72,SSE,162,0.0,0.0,78,0.00,,,0.00,Weather View 32 v70,2013-08-20 07:05:00,
2013-08-20 02:10:00,73.2,65.9,29.66,South,184,0.0,0.0,78,0.00,,,0.00,Weather View 32 v70,2013-08-20 07:10:00,
2013-08-20 02:15:00,73.2,65.9,29.68,South,184,0.0,0.0,78,0.00,,,0.00,Weather View 32 v70,2013-08-20 07:15:00,
2013-08-20 02:25:00,73.1,65.8,29.68,SSE,162,0.0,0.0,78,0.00,,,0.00,Weather View 32 v70,2013-08-20 07:25:00,
2013-08-20 02:30:00,73.0,65.7,29.56,SE,139,0.0,0.0,78,0.00,,,0.00,Weather View 32 v70,2013-08-20 07:30:00,
2013-08-20 02:35:00,72.9,65.6,29.61,SSE,162,0.0,0.0,78,0.00,,,0.00,Weather View 32 v70,2013-08-20 07:35:00,
2013-08-20 02:40:00,72.9,65.6,29.59,South,184,0.0,0.0,78,0.00,,,0.00,Weather View 32 v70,2013-08-20 07:40:00,
2013-08-20 02:50:00,72.8,65.5,29.57,SE,139,0.0,0.0,78,0.00,,,0.00,Weather View 32 v70,2013-08-20 07:50:00,
2013-08-20 02:55:00,72.8,65.9,29.67,SE,139,0.0,0.0,79,0.00,,,0.00,Weather View 32 v70,2013-08-20 07:55:00,
2013-08-20 03:00:00,72.8,65.9,29.60,South,184,0.0,0.0,79,0.00,,,0.00,Weather View 32 v70,2013-08-20 08:00:00,
2013-08-20 03:10:00,72.9,65.6,29.59,SSE,162,0.0,0.0,78,0.00,,,0.00,Weather View 32 v70,2013-08-20 08:10:00,
2013-08-20 03:15:00,72.9,65.6,29.60,ESE,117,0.0,0.0,78,0.00,,,0.00,Weather View 32 v70,2013-08-20 08:15:00,
2013-08-20 03:25:00,73.0,65.7,29.55,SW,229,0.0,0.0,78,0.00,,,0.00,Weather View 32 v70,2013-08-20 08:25:00,
2013-08-20 03:30:00,73.0,65.7,29.55,SSW,207,0.0,0.0,78,0.00,,,0.00,Weather View 32 v70,2013-08-20 08:30:00,
2013-08-20 03:35:00,72.9,65.6,29.52,SW,229,0.0,0.0,78,0.00,,,0.00,Weather View 32 v70,2013-08-20 08:35:00,
2013-08-20 03:41:00,72.8,65.5,29.55,ESE,117,0.0,0.0,78,0.00,,,0.00,Weather View 32 v70,2013-08-20 08:41:00,
2013-08-20 03:50:00,72.5,65.6,29.60,East,94,0.0,0.0,79,0.00,,,0.00,Weather View 32 v70,2013-08-20 08:50:00,
2013-08-20 03:55:00,72.5,65.6,29.62,ESE,117,0.0,0.0,79,0.00,,,0.00,Weather View 32 v70,2013-08-20 08:55:00,
2013-08-20 04:05:00,72.5,66.0,29.49,SSE,162,0.0,0.0,80,0.00,,,0.00,Weather View 32 v70,2013-08-20 09:05:00,
2013-08-20 04:10:00,72.7,66.1,29.35,ESE,117,0.0,0.0,80,0.00,,,0.00,Weather View 32 v70,2013-08-20 09:10:00,
2013-08-20 04:15:00,72.8,66.2,29.54,SE,139,0.0,0.0,80,0.00,,,0.00,Weather View 32 v70,2013-08-20 09:15:00,
2013-08-20 04:25:00,72.8,65.9,29.58,SE,139,0.0,0.0,79,0.00,,,0.00,Weather View 32 v70,2013-08-20 09:25:00,
2013-08-20 04:30:00,72.7,65.8,29.70,East,94,0.0,0.0,79,0.00,,,0.00,Weather View 32 v70,2013-08-20 09:30:00,
2013-08-20 04:35:00,72.8,65.9,29.67,ESE,117,0.0,0.0,79,0.00,,,0.00,Weather View 32 v70,2013-08-20 09:35:00,
2013-08-20 04:42:00,72.6,66.1,29.66,East,94,0.0,0.0,80,0.00,,,0.00,Weather View 32 v70,2013-08-20 09:42:00,
2013-08-20 04:50:00,72.5,66.0,29.56,SE,139,0.0,0.0,80,0.00,,,0.00,Weather View 32 v70,2013-08-20 09:50:00,
2013-08-20 04:55:00,72.4,65.9,29.60,ESE,117,0.0,0.0,80,0.00,,,0.00,Weather View 32 v70,2013-08-20 09:55:00,
2013-08-20 05:05:00,72.4,65.9,29.66,SE,139,0.0,0.0,80,0.00,,,0.00,Weather View 32 v70,2013-08-20 10:05:00,
2013-08-20 05:10:00,72.3,65.8,29.65,SSE,162,0.0,0.0,80,0.00,,,0.00,Weather View 32 v70,2013-08-20 10:10:00,
2013-08-20 05:20:00,72.3,66.1,29.66,ESE,117,0.0,0.0,81,0.00,,,0.00,Weather View 32 v70,2013-08-20 10:20:00,
2013-08-20 05:25:00,72.4,66.2,29.68,East,94,0.0,0.0,81,0.00,,,0.00,Weather View 32 v70,2013-08-20 10:25:00,
2013-08-20 06:55:00,72.4,66.6,29.40,SSE,162,0.0,0.0,82,0.00,,,0.00,Weather View 32 v70,2013-08-20 11:55:00,
2013-08-20 07:00:00,72.3,66.5,29.39,SSE,162,0.0,0.0,82,0.00,,,0.00,Weather View 32 v70,2013-08-20 12:00:00,
2013-08-20 07:05:00,71.6,65.8,29.45,SSE,162,0.0,0.0,82,0.00,,,0.00,Weather View 32 v70,2013-08-20 12:05:00,
2013-08-20 07:10:00,71.7,65.9,29.47,South,184,0.0,0.0,82,0.00,,,0.00,Weather View 32 v70,2013-08-20 12:10:00,
2013-08-20 07:15:00,71.8,66.0,29.44,SSW,207,0.0,0.0,82,0.00,,,0.00,Weather View 32 v70,2013-08-20 12:15:00,
2013-08-20 07:25:00,72.4,66.6,29.42,SE,139,0.0,0.0,82,0.00,,,0.00,Weather View 32 v70,2013-08-20 12:25:00,
2013-08-20 07:30:00,72.3,66.5,29.38,NNE,27,0.0,0.0,82,0.00,,,0.00,Weather View 32 v70,2013-08-20 12:30:00,
2013-08-20 07:35:00,72.4,66.6,29.45,ENE,72,0.0,0.0,82,0.00,,,0.00,Weather View 32 v70,2013-08-20 12:35:00,
2013-08-20 07:45:00,72.7,66.5,29.44,SW,229,0.0,0.0,81,0.00,,,0.00,Weather View 32 v70,2013-08-20 12:45:00,
2013-08-20 07:50:00,73.0,66.8,29.65,SSE,162,0.0,0.0,81,0.00,,,0.00,Weather View 32 v70,2013-08-20 12:50:00,
2013-08-20 07:55:00,73.3,67.1,29.54,NE,49,0.0,0.0,81,0.00,,,0.00,Weather View 32 v70,2013-08-20 12:55:00,
2013-08-20 08:05:00,74.0,67.4,29.36,ESE,117,0.0,0.0,80,0.00,,,0.00,Weather View 32 v70,2013-08-20 13:05:00,
2013-08-20 08:10:00,73.7,66.8,29.46,South,184,0.0,0.0,79,0.00,,,0.00,Weather View 32 v70,2013-08-20 13:10:00,
2013-08-20 08:20:00,74.3,67.0,29.45,SE,139,0.0,0.0,78,0.00,,,0.00,Weather View 32 v70,2013-08-20 13:20:00,
2013-08-20 08:25:00,74.5,67.2,29.58,SE,139,0.0,0.0,78,0.00,,,0.00,Weather View 32 v70,2013-08-20 13:25:00,
2013-08-20 08:35:00,74.7,67.0,29.43,SSE,162,0.0,0.0,77,0.00,,,0.00,Weather View 32 v70,2013-08-20 13:35:00,
2013-08-20 08:40:00,74.8,67.1,29.57,ESE,117,0.0,0.0,77,0.00,,,0.00,Weather View 32 v70,2013-08-20 13:40:00,
2013-08-20 08:50:00,75.3,67.6,29.50,ESE,117,0.0,0.0,77,0.00,,,0.00,Weather View 32 v70,2013-08-20 13:50:00,
2013-08-20 08:55:00,75.2,67.5,29.52,SW,229,0.0,0.0,77,0.00,,,0.00,Weather View 32 v70,2013-08-20 13:55:00,
2013-08-20 09:00:00,76.3,68.5,29.38,ESE,117,0.0,0.0,77,0.00,,,0.00,Weather View 32 v70,2013-08-20 14:00:00,
2013-08-20 09:10:00,77.3,69.5,29.41,ESE,117,0.0,0.0,77,0.00,,,0.00,Weather View 32 v70,2013-08-20 14:10:00,
2013-08-20 09:20:00,76.1,68.0,29.51,ESE,117,0.0,0.0,76,0.00,,,0.00,Weather View 32 v70,2013-08-20 14:20:00,
2013-08-20 09:25:00,76.3,67.8,29.47,SE,139,0.0,0.0,75,0.00,,,0.00,Weather View 32 v70,2013-08-20 14:25:00,
2013-08-20 09:35:00,78.6,70.4,29.44,South,184,0.0,0.0,76,0.00,,,0.00,Weather View 32 v70,2013-08-20 14:35:00,
2013-08-20 09:40:00,76.4,67.9,29.42,SE,139,0.0,0.0,75,0.00,,,0.00,Weather View 32 v70,2013-08-20 14:40:00,
2013-08-20 09:45:00,76.3,67.8,29.36,SW,229,0.0,0.0,75,0.00,,,0.00,Weather View 32 v70,2013-08-20 14:45:00,
2013-08-20 09:55:00,77.0,68.0,29.46,South,184,0.0,0.0,74,0.00,,,0.00,Weather View 32 v70,2013-08-20 14:55:00,
2013-08-20 10:05:00,78.3,68.9,29.38,SE,139,0.0,0.0,73,0.00,,,0.00,Weather View 32 v70,2013-08-20 15:05:00,
2013-08-20 10:10:00,77.9,68.5,29.32,South,184,0.0,0.0,73,0.00,,,0.00,Weather View 32 v70,2013-08-20 15:10:00,
2013-08-20 10:20:00,79.3,69.9,29.35,South,184,0.0,0.0,73,0.00,,,0.00,Weather View 32 v70,2013-08-20 15:20:00,
2013-08-20 10:25:00,79.9,70.0,29.39,South,184,0.0,0.0,72,0.00,,,0.00,Weather View 32 v70,2013-08-20 15:25:00,
2013-08-20 10:35:00,77.9,67.7,29.36,SE,139,0.0,0.0,71,0.00,,,0.00,Weather View 32 v70,2013-08-20 15:35:00,
2013-08-20 10:40:00,78.2,68.4,29.33,SE,139,0.0,0.0,72,0.00,,,0.00,Weather View 32 v70,2013-08-20 15:40:00,
2013-08-20 10:50:00,78.9,68.7,29.40,SSE,162,0.0,0.0,71,0.00,,,0.00,Weather View 32 v70,2013-08-20 15:50:00,
2013-08-20 10:55:00,78.4,68.2,29.36,SSE,162,0.0,0.0,71,0.00,,,0.00,Weather View 32 v70,2013-08-20 15:55:00,
2013-08-20 11:00:00,78.1,67.5,29.37,SSW,207,0.0,0.0,70,0.00,,,0.00,Weather View 32 v70,2013-08-20 16:00:00,
2013-08-20 11:10:00,79.8,69.1,29.47,SSE,162,0.0,0.0,70,0.00,,,0.00,Weather View 32 v70,2013-08-20 16:10:00,
2013-08-20 11:15:00,79.4,68.7,29.36,SE,139,0.0,0.0,70,0.00,,,0.00,Weather View 32 v70,2013-08-20 16:15:00,
2013-08-20 11:20:00,80.5,69.8,29.38,SE,139,0.0,0.0,70,0.00,,,0.00,Weather View 32 v70,2013-08-20 16:20:00,
2013-08-20 11:25:00,79.7,68.6,29.39,SSW,207,0.0,0.0,69,0.00,,,0.00,Weather View 32 v70,2013-08-20 16:25:00,
2013-08-20 11:35:00,80.3,69.2,29.39,East,94,0.0,0.0,69,0.00,,,0.00,Weather View 32 v70,2013-08-20 16:35:00,
2013-08-20 11:40:00,79.4,68.7,29.34,South,184,0.0,0.0,70,0.00,,,0.00,Weather View 32 v70,2013-08-20 16:40:00,
2013-08-20 11:50:00,80.3,69.2,29.39,SE,139,0.0,0.0,69,0.00,,,0.00,Weather View 32 v70,2013-08-20 16:50:00,
2013-08-20 11:55:00,82.5,71.3,29.42,SSW,207,0.0,0.0,69,0.00,,,0.00,Weather View 32 v70,2013-08-20 16:55:00,
2013-08-20 12:00:00,80.4,69.3,29.36,ESE,117,0.0,0.0,69,0.00,,,0.00,Weather View 32 v70,2013-08-20 17:00:00,
2013-08-20 12:10:00,83.8,72.9,29.45,WSW,252,0.0,0.0,70,0.00,,,0.00,Weather View 32 v70,2013-08-20 17:10:00,
2013-08-20 12:15:00,80.7,69.1,29.34,ESE,117,0.0,0.0,68,0.00,,,0.00,Weather View 32 v70,2013-08-20 17:15:00,
2013-08-20 12:25:00,81.9,70.3,29.37,ENE,72,0.0,0.0,68,0.00,,,0.00,Weather View 32 v70,2013-08-20 17:25:00,
2013-08-20 12:30:00,83.0,72.2,29.45,NE,49,0.0,0.0,70,0.00,,,0.00,Weather View 32 v70,2013-08-20 17:30:00,
2013-08-20 12:40:00,80.6,68.6,29.32,South,184,0.0,0.0,67,0.00,,,0.00,Weather View 32 v70,2013-08-20 17:40:00,
2013-08-20 12:45:00,84.6,73.7,29.47,ENE,72,0.0,0.0,70,0.00,,,0.00,Weather View 32 v70,2013-08-20 17:45:00,
2013-08-20 12:50:00,84.1,73.2,29.41,ENE,72,0.0,0.0,70,0.00,,,0.00,Weather View 32 v70,2013-08-20 17:50:00,
2013-08-20 12:57:00,83.7,72.0,29.39,SSE,162,0.0,0.0,68,0.00,,,0.00,Weather View 32 v70,2013-08-20 17:57:00,
2013-08-20 13:05:00,83.4,71.7,29.38,SSW,207,0.0,0.0,68,0.00,,,0.00,Weather View 32 v70,2013-08-20 18:05:00,
2013-08-20 13:15:00,83.2,71.5,29.39,ESE,117,0.0,0.0,68,0.00,,,0.00,Weather View 32 v70,2013-08-20 18:15:00,
2013-08-20 13:20:00,84.2,72.9,29.47,SSE,162,0.0,0.0,69,0.00,,,0.00,Weather View 32 v70,2013-08-20 18:20:00,
2013-08-20 13:30:00,82.8,69.8,29.35,ESE,117,0.0,0.0,65,0.00,,,0.00,Weather View 32 v70,2013-08-20 18:30:00,
2013-08-20 13:35:00,81.3,67.9,29.26,South,184,0.0,0.0,64,0.00,,,0.00,Weather View 32 v70,2013-08-20 18:35:00,
2013-08-20 13:40:00,82.6,69.1,29.39,ENE,72,0.0,0.0,64,0.00,,,0.00,Weather View 32 v70,2013-08-20 18:40:00,
2013-08-20 13:50:00,85.0,72.8,29.43,ESE,117,0.0,0.0,67,0.00,,,0.00,Weather View 32 v70,2013-08-20 18:50:00,
2013-08-20 13:55:00,83.5,70.9,29.37,South,184,0.0,0.0,66,0.00,,,0.00,Weather View 32 v70,2013-08-20 18:55:00,
2013-08-20 14:05:00,81.3,68.8,29.24,South,184,0.0,0.0,66,0.00,,,0.00,Weather View 32 v70,2013-08-20 19:05:00,
2013-08-20 14:10:00,83.9,70.8,29.38,SE,139,0.0,0.0,65,0.00,,,0.00,Weather View 32 v70,2013-08-20 19:10:00,
2013-08-20 14:20:00,82.3,68.9,29.31,SSE,162,0.0,0.0,64,0.00,,,0.00,Weather View 32 v70,2013-08-20 19:20:00,
2013-08-20 14:25:00,82.5,69.0,29.31,South,184,0.0,0.0,64,0.00,,,0.00,Weather View 32 v70,2013-08-20 19:25:00,
2013-08-20 14:35:00,82.9,69.4,29.35,SSE,162,0.0,0.0,64,0.00,,,0.00,Weather View 32 v70,2013-08-20 19:35:00,
2013-08-20 14:40:00,85.3,73.0,29.46,SE,139,0.0,0.0,67,0.00,,,0.00,Weather View 32 v70,2013-08-20 19:40:00,
2013-08-20 14:45:00,83.6,70.1,29.35,South,184,0.0,0.0,64,0.00,,,0.00,Weather View 32 v70,2013-08-20 19:45:00,
2013-08-20 14:55:00,83.4,70.3,29.33,ENE,72,0.0,0.0,65,0.00,,,0.00,Weather View 32 v70,2013-08-20 19:55:00,
2013-08-20 15:00:00,83.5,70.9,29.32,ESE,117,0.0,0.0,66,0.00,,,0.00,Weather View 32 v70,2013-08-20 20:00:00,
2013-08-20 15:10:00,83.2,69.2,29.28,East,94,0.0,0.0,63,0.00,,,0.00,Weather View 32 v70,2013-08-20 20:10:00,
2013-08-20 15:20:00,83.0,69.1,29.29,East,94,0.0,0.0,63,0.00,,,0.00,Weather View 32 v70,2013-08-20 20:20:00,
2013-08-20 15:25:00,83.8,70.3,29.30,South,184,0.0,0.0,64,0.00,,,0.00,Weather View 32 v70,2013-08-20 20:25:00,
2013-08-20 15:35:00,83.4,69.4,29.30,East,94,0.0,0.0,63,0.00,,,0.00,Weather View 32 v70,2013-08-20 20:35:00,
2013-08-20 15:40:00,82.8,68.4,29.28,ESE,117,0.0,0.0,62,0.00,,,0.00,Weather View 32 v70,2013-08-20 20:40:00,
2013-08-20 15:45:00,82.0,67.6,29.25,South,184,0.0,0.0,62,0.00,,,0.00,Weather View 32 v70,2013-08-20 20:45:00,
2013-08-20 15:50:00,83.0,69.1,29.32,ESE,117,0.0,0.0,63,0.00,,,0.00,Weather View 32 v70,2013-08-20 20:50:00,
2013-08-20 15:59:00,81.7,68.3,29.26,ENE,72,0.0,0.0,64,0.00,,,0.00,Weather View 32 v70,2013-08-20 20:59:00,
2013-08-20 16:05:00,82.6,68.7,29.29,SE,139,0.0,0.0,63,0.00,,,0.00,Weather View 32 v70,2013-08-20 21:05:00,
2013-08-20 16:15:00,82.8,69.3,29.29,South,184,0.0,0.0,64,0.00,,,0.00,Weather View 32 v70,2013-08-20 21:15:00,
2013-08-20 16:20:00,83.4,69.4,29.36,SE,139,0.0,0.0,63,0.00,,,0.00,Weather View 32 v70,2013-08-20 21:20:00,
2013-08-20 16:30:00,84.0,70.5,29.35,SW,229,0.0,0.0,64,0.00,,,0.00,Weather View 32 v70,2013-08-20 21:30:00,
2013-08-20 16:35:00,82.3,68.9,29.31,South,184,0.0,0.0,64,0.00,,,0.00,Weather View 32 v70,2013-08-20 21:35:00,
2013-08-20 16:40:00,81.6,68.6,29.25,East,94,0.0,0.0,65,0.00,,,0.00,Weather View 32 v70,2013-08-20 21:40:00,
2013-08-20 16:50:00,82.2,69.7,29.29,SSE,162,0.0,0.0,66,0.00,,,0.00,Weather View 32 v70,2013-08-20 21:50:00,
2013-08-20 16:55:00,82.3,69.8,29.33,SSE,162,0.0,0.0,66,0.00,,,0.00,Weather View 32 v70,2013-08-20 21:55:00,
2013-08-20 17:00:00,82.2,69.7,29.39,South,184,0.0,0.0,66,0.00,,,0.00,Weather View 32 v70,2013-08-20 22:00:00,
2013-08-20 17:10:00,81.3,69.2,29.27,SE,139,0.0,0.0,67,0.00,,,0.00,Weather View 32 v70,2013-08-20 22:10:00,
2013-08-20 17:15:00,81.5,69.4,29.32,WSW,252,0.0,0.0,67,0.00,,,0.00,Weather View 32 v70,2013-08-20 22:15:00,
2013-08-20 17:25:00,83.0,70.9,29.41,SSW,207,0.0,0.0,67,0.00,,,0.00,Weather View 32 v70,2013-08-20 22:25:00,
2013-08-20 17:30:00,82.5,70.4,29.35,SE,139,0.0,0.0,67,0.00,,,0.00,Weather View 32 v70,2013-08-20 22:30:00,
2013-08-20 17:40:00,82.4,70.3,29.31,South,184,0.0,0.0,67,0.00,,,0.00,Weather View 32 v70,2013-08-20 22:40:00,
2013-08-20 17:45:00,81.6,69.5,29.31,SSE,162,0.0,0.0,67,0.00,,,0.00,Weather View 32 v70,2013-08-20 22:45:00,
2013-08-20 17:50:00,81.3,69.2,29.24,ESE,117,0.0,0.0,67,0.00,,,0.00,Weather View 32 v70,2013-08-20 22:50:00,
2013-08-20 18:00:00,83.1,71.0,29.49,SSE,162,0.0,0.0,67,0.00,,,0.00,Weather View 32 v70,2013-08-20 23:00:00,
2013-08-20 18:10:00,82.7,70.6,29.44,SSW,207,0.0,0.0,67,0.00,,,0.00,Weather View 32 v70,2013-08-20 23:10:00,
2013-08-20 18:20:00,82.0,69.9,29.36,South,184,0.0,0.0,67,0.00,,,0.00,Weather View 32 v70,2013-08-20 23:20:00,
2013-08-20 18:25:00,82.2,70.1,29.36,SSW,207,0.0,0.0,67,0.00,,,0.00,Weather View 32 v70,2013-08-20 23:25:00,
2013-08-20 18:30:00,82.2,70.1,29.39,SE,139,0.0,0.0,67,0.00,,,0.00,Weather View 32 v70,2013-08-20 23:30:00,
2013-08-20 18:40:00,82.8,70.7,29.37,SW,229,0.0,0.0,67,0.00,,,0.00,Weather View 32 v70,2013-08-20 23:40:00,
2013-08-20 18:45:00,83.7,71.5,29.51,SSE,162,0.0,0.0,67,0.00,,,0.00,Weather View 32 v70,2013-08-20 23:45:00,
2013-08-20 18:50:00,82.8,70.7,29.44,SSE,162,0.0,0.0,67,0.00,,,0.00,Weather View 32 v70,2013-08-20 23:50:00,
2013-08-20 19:00:00,82.7,70.6,29.37,SSE,162,0.0,0.0,67,0.00,,,0.00,Weather View 32 v70,2013-08-21 00:00:00,
2013-08-20 19:05:00,82.7,70.6,29.40,SSE,162,0.0,0.0,67,0.00,,,0.00,Weather View 32 v70,2013-08-21 00:05:00,
2013-08-20 19:10:00,84.1,73.2,29.42,ESE,117,0.0,0.0,70,0.00,,,0.00,Weather View 32 v70,2013-08-21 00:10:00,
2013-08-20 19:15:00,81.0,69.8,29.25,SW,229,0.0,0.0,69,0.00,,,0.00,Weather View 32 v70,2013-08-21 00:15:00,
2013-08-20 19:25:00,80.8,70.1,29.32,SSE,162,0.0,0.0,70,0.00,,,0.00,Weather View 32 v70,2013-08-21 00:25:00,
2013-08-20 19:30:00,80.3,70.0,29.24,SW,229,0.0,0.0,71,0.00,,,0.00,Weather View 32 v70,2013-08-21 00:30:00,
2013-08-20 19:35:00,80.9,71.4,29.27,SSW,207,0.0,0.0,73,0.00,,,0.00,Weather View 32 v70,2013-08-21 00:35:00,
2013-08-20 19:45:00,80.1,70.2,29.26,South,184,0.0,0.0,72,0.00,,,0.00,Weather View 32 v70,2013-08-21 00:45:00,
2013-08-20 19:50:00,81.0,71.5,29.33,ESE,117,0.0,0.0,73,0.00,,,0.00,Weather View 32 v70,2013-08-21 00:50:00,
2013-08-20 20:00:00,80.1,71.0,29.36,SSE,162,0.0,0.0,74,0.00,,,0.00,Weather View 32 v70,2013-08-21 01:00:00,
2013-08-20 20:05:00,79.5,70.4,29.36,South,184,0.0,0.0,74,0.00,,,0.00,Weather View 32 v70,2013-08-21 01:05:00,
2013-08-20 20:10:00,77.9,68.9,29.23,SSE,162,0.0,0.0,74,0.00,,,0.00,Weather View 32 v70,2013-08-21 01:10:00,
2013-08-20 20:20:00,79.4,71.5,29.53,SE,139,0.0,0.0,77,0.00,,,0.00,Weather View 32 v70,2013-08-21 01:20:00,
2013-08-20 20:25:00,77.6,69.8,29.32,South,184,0.0,0.0,77,0.00,,,0.00,Weather View 32 v70,2013-08-21 01:25:00,
2013-08-20 20:30:00,77.6,70.2,29.33,SSE,162,0.0,0.0,78,0.00,,,0.00,Weather View 32 v70,2013-08-21 01:30:00,
2013-08-20 20:35:00,78.8,71.7,29.48,SSE,162,0.0,0.0,79,0.00,,,0.00,Weather View 32 v70,2013-08-21 01:35:00,
2013-08-20 20:40:00,77.5,70.4,29.29,SE,139,0.0,0.0,79,0.00,,,0.00,Weather View 32 v70,2013-08-21 01:40:00,
2013-08-20 20:50:00,77.9,70.8,29.34,SE,139,0.0,0.0,79,0.00,,,0.00,Weather View 32 v70,2013-08-21 01:50:00,
2013-08-20 20:55:00,78.6,71.5,29.38,SSE,162,0.0,0.0,79,0.00,,,0.00,Weather View 32 v70,2013-08-21 01:55:00,
2013-08-20 21:00:00,78.2,70.7,29.35,SE,139,0.0,0.0,78,0.00,,,0.00,Weather View 32 v70,2013-08-21 02:00:00,
2013-08-20 21:10:00,79.2,72.5,29.34,SSE,162,0.0,0.0,80,0.00,,,0.00,Weather View 32 v70,2013-08-21 02:10:00,
2013-08-20 21:15:00,78.3,71.2,29.47,SSE,162,0.0,0.0,79,0.00,,,0.00,Weather View 32 v70,2013-08-21 02:15:00,
2013-08-20 21:25:00,77.2,70.5,29.32,ESE,117,0.0,0.0,80,0.00,,,0.00,Weather View 32 v70,2013-08-21 02:25:00,
2013-08-20 21:30:00,77.1,70.8,29.28,SE,139,0.0,0.0,81,0.00,,,0.00,Weather View 32 v70,2013-08-21 02:30:00,
2013-08-20 21:35:00,77.6,71.6,29.40,SE,139,0.0,0.0,82,0.00,,,0.00,Weather View 32 v70,2013-08-21 02:35:00,
2013-08-20 21:45:00,78.1,72.1,29.50,SSE,162,0.0,0.0,82,0.00,,,0.00,Weather View 32 v70,2013-08-21 02:45:00,
2013-08-20 21:50:00,76.8,70.9,29.33,SSE,162,0.0,0.0,82,0.00,,,0.00,Weather View 32 v70,2013-08-21 02:50:00,
2013-08-20 22:00:00,76.9,71.0,29.37,ESE,117,0.0,0.0,82,0.00,,,0.00,Weather View 32 v70,2013-08-21 03:00:00,
2013-08-20 22:05:00,77.3,71.7,29.48,SE,139,0.0,0.0,83,0.00,,,0.00,Weather View 32 v70,2013-08-21 03:05:00,
2013-08-20 22:15:00,78.1,72.5,29.49,South,184,0.0,0.0,83,0.00,,,0.00,Weather View 32 v70,2013-08-21 03:15:00,
2013-08-20 22:20:00,78.1,72.5,29.46,ESE,117,0.0,0.0,83,0.00,,,0.00,Weather View 32 v70,2013-08-21 03:20:00,
2013-08-20 22:25:00,78.0,72.4,29.43,ESE,117,0.0,0.0,83,0.00,,,0.00,Weather View 32 v70,2013-08-21 03:25:00,
2013-08-20 22:35:00,78.7,72.7,29.54,SE,139,0.0,0.0,82,0.00,,,0.00,Weather View 32 v70,2013-08-21 03:35:00,
2013-08-20 22:40:00,78.8,72.8,29.55,South,184,0.0,0.0,82,0.00,,,0.00,Weather View 32 v70,2013-08-21 03:40:00,
2013-08-20 22:45:00,78.7,72.3,29.49,ESE,117,0.0,0.0,81,0.00,,,0.00,Weather View 32 v70,2013-08-21 03:45:00,
2013-08-20 22:55:00,78.3,71.6,29.42,ESE,117,0.0,0.0,80,0.00,,,0.00,Weather View 32 v70,2013-08-21 03:55:00,
2013-08-20 23:02:00,78.4,71.7,29.44,SSE,162,0.0,0.0,80,0.00,,,0.00,Weather View 32 v70,2013-08-21 04:02:00,
2013-08-20 23:05:00,77.7,70.6,29.35,SE,139,0.0,0.0,79,0.00,,,0.00,Weather View 32 v70,2013-08-21 04:05:00,
2013-08-20 23:10:00,78.6,71.5,29.53,East,94,0.0,0.0,79,0.00,,,0.00,Weather View 32 v70,2013-08-21 04:10:00,
2013-08-20 23:15:00,77.5,70.4,29.33,ESE,117,0.0,0.0,79,0.00,,,0.00,Weather View 32 v70,2013-08-21 04:15:00,
2013-08-20 23:25:00,78.2,71.1,29.53,ESE,117,0.0,0.0,79,0.00,,,0.00,Weather View 32 v70,2013-08-21 04:25:00,
2013-08-20 23:30:00,78.1,71.0,29.52,SE,139,0.0,0.0,79,0.00,,,0.00,Weather View 32 v70,2013-08-21 04:30:00,
2013-08-20 23:35:00,78.1,71.0,29.54,SSE,162,0.0,0.0,79,0.00,,,0.00,Weather View 32 v70,2013-08-21 04:35:00,
2013-08-20 23:40:00,78.1,71.0,29.60,SSW,207,0.0,0.0,79,0.00,,,0.00,Weather View 32 v70,2013-08-21 04:40:00,
2013-08-20 23:45:00,77.1,70.1,29.38,SW,229,0.0,0.0,79,0.00,,,0.00,Weather View 32 v70,2013-08-21 04:45:00,
2013-08-20 23:50:00,77.8,70.7,29.57,WSW,252,0.0,0.0,79,0.00,,,0.00,Weather View 32 v70,2013-08-21 04:50:00,